Home > Time Zones > World Clock > Weather > China > Sian > Past weeks

Flag for China Weather past 2 weeks in Sian, Shaanxi, China

Now
30 °F

Ice fog.


Feels Like: 30 °F
Forecast: 25 / 56 °F
Wind: 1 mph from Northwest

Location: Xian/Xianyang

Current Time: Mar 6, 2015 at 12:48:05 AM

Latest Report: Mar 6, 2015 at 12:00 AM


Visibility: 1 mi

Pressure: 30.24 "Hg

Humidity: 93%

Dew point: 28 °F

Location of SianLocation

Historic Weather in Sian — Graph

°F

Sian temperature yesterday

Maximum temperature yesterday: 39 °F (at 4:00 PM)
Minimum temperature yesterday: 30 °F (at 9:00 PM)
Average temperature yesterday: 33 °F

Past Weeks' High & Low Weather Summary

 TemperatureHumidityPressure
High61 °F (Mar 2, 3:00 PM)100% (Feb 21, 2:00 AM)30.48 "Hg (Feb 21, 2:00 AM)
Low19 °F (Mar 1, 6:00 AM)13% (Feb 25, 4:00 PM)29.86 "Hg (Mar 2, 3:00 PM)
Average40 °F55%30.13 "Hg
* Reported Midnight between Feb 18 and Feb 19 — Midnight between Mar 5 and Mar 6, Sian, Weather by CustomWeather, © 2015

Note: Actual official high and low records may vary slightly from our data, if they occured in-between our weather recording intervals... More about our weather records

Advertising

Sian weather history for previous 24 hours

 ConditionsComfort  
Time TempWeatherWind HumidityBarometerVisibility
12:00 AM
Fri, Mar 6
30 °FIce fog.1 mph93%30.24 "Hg1 mi
11:00 PM
Thu, Mar 5
30 °FIce fog.3 mph93%30.27 "Hg1 mi
10:00 PM32 °FIce fog.1 mph93%30.27 "Hg1 mi
9:00 PM30 °FIce fog.1 mph93%30.24 "Hg1 mi
8:00 PM36 °FFog.1 mph81%30.21 "Hg1 mi
7:00 PM36 °FFog.1 mph81%30.21 "Hg1 mi
6:00 PM37 °FFog.1 mph70%30.18 "Hg1 mi
5:00 PM37 °FFog.3 mph70%30.18 "Hg1 mi
4:00 PM39 °FFog.1 mph70%30.18 "Hg1 mi
3:00 PM37 °FFog.1 mph75%30.21 "Hg1 mi
2:00 PM36 °FFog.1 mph81%30.21 "Hg1 mi
1:00 PM34 °FFog.3 mph87%30.24 "Hg1 mi
12:00 PM34 °FLight snow. Fog.6 mph87%30.27 "Hg1 mi
11:00 AM32 °FLight snow. Ice fog.6 mph93%30.27 "Hg1 mi
10:00 AM32 °FLight snow. Ice fog.8 mph93%30.27 "Hg1 mi
9:00 AM32 °FLight snow. Ice fog.8 mph93%30.27 "Hg1 mi
8:00 AM32 °FLight snow. Ice fog.10 mph93%30.24 "Hg1 mi
7:00 AM32 °FLight rain. Ice fog.8 mph93%30.21 "Hg1 mi
6:00 AM32 °FLight rain. Ice fog.8 mph93%30.21 "Hg1 mi
5:00 AM32 °FLight rain. Ice fog.8 mph93%30.21 "Hg1 mi
4:00 AM32 °FLight rain. Ice fog.10 mph93%30.21 "Hg1 mi
3:00 AM32 °FLight rain. Ice fog.10 mph93%30.21 "Hg1 mi
2:00 AM32 °FLight snow. Ice fog.8 mph93%30.24 "Hg1 mi
1:00 AM32 °FLight snow. Ice fog.8 mph93%30.21 "Hg1 mi
12:00 AM32 °FLight snow. Ice fog.6 mph93%30.27 "Hg1 mi
Weather by CustomWeather, © 2015

See weather overviewHow to use our weather pages